Regional Weather Roundup
Issued by NWS

Home | Current Version | Previous Version | Graphics & Text | Print | Product List | Glossary On
Versions: 1 2 3 4 5 6 7 8 9 10 11 12 13 14 15 16 17 18 19 20 21 22 23 24 25 26 27 28 29 30 31 32 33 34 35 36 37 38 39 40 41 42 43 44 45 46 47 48 49 50
000
ASUS43 KLSX 251507
RWRMO

WEATHER SUMMARY FOR MISSOURI
NATIONAL WEATHER SERVICE SPRINGFIELD MO
900 AM CST SAT FEB 25 2017

NOTE: "FAIR" INDICATES FEW OR NO CLOUDS BELOW 12,000 FEET WITH NO
       SIGNIFICANT WEATHER AND/OR OBSTRUCTIONS TO VISIBILITY.
       CURRENT SKY AND/OR WEATHER CONDITIONS ARE NOT AVAILABLE FOR
       CHILLICOTHE AND FARMINGTON.

MOZ001>031-035>038-043-044-053-054-251600-
...NORTHERN AND WESTERN MISSOURI...

CITY           SKY/WX    TMP DP  RH WIND       PRES   REMARKS
KANSAS CTY INT MOSUNNY   25  17  72 NW9       30.16R WCI  15
KANSAS C DTWN  SUNNY     27  15  61 NW10      30.18R WCI  17
LEE`S SUMMIT   SUNNY     26  14  60 NW12      30.17R WCI  16
ST JOSEPH      SUNNY     23  18  81 NW10      30.18R WCI  12
CHILLICOTHE      N/A     24  14  65 NW13      30.14R WCI  12
KIRKSVILLE     SUNNY     22  14  71 NW15G24   30.07R WCI   9

$$
MOZ066>068-077>081-088>096-101>105-251600-
...SOUTHWEST MISSOURI...

CITY           SKY/WX    TMP DP  RH WIND       PRES   REMARKS
SPRINGFIELD    SUNNY     27  18  69 NW12G21   30.13R WCI  17
JOPLIN         SUNNY     28  20  71 NW14      30.21R WCI  17
BRANSON        SUNNY     28  18  64 NW10      30.15R WCI  19

$$
MOZ032>034-039>042-045>050-055>058-069>072-251600-
...CENTRAL MISSOURI...

CITY           SKY/WX    TMP DP  RH WIND       PRES   REMARKS
COLUMBIA       SUNNY     26  16  65 NW15      30.10R WCI  14
JEFFERSON CITY MOSUNNY   26  16  65 NW15G21   30.13R WCI  14
ROLLA          MOSUNNY   27  17  66 W14       30.07R WCI  16
SEDALIA        SUNNY     27  14  58 NW14      30.15R WCI  16
WHITEMAN AFB   MOSUNNY   26  14  59 NW16      30.14R WCI  14
WARRENSBURG    SUNNY     27  14  59 W15G21    30.17R WCI  15
OSAGE BEACH    MOSUNNY   28  16  60 NW12G18   30.14R WCI  18

$$
MOZ051-052-059>065-251600-
...EAST CENTRAL MISSOURI...

CITY           SKY/WX    TMP DP  RH WIND       PRES   REMARKS
ST LOUIS INTL  MOSUNNY   30  14  51 NW20G30   30.05R WCI  17
SPIRIT OF STL  MOSUNNY   30  15  53 NW21      30.06R WCI  17
ST CHARLES     SUNNY     29  14  53 NW17      30.05R WCI  17

$$
MOZ072>076-082>087-097>100-106>115-251600-
...SOUTH CENTRAL AND SOUTHEAST MISSOURI...

CITY           SKY/WX    TMP DP  RH WIND       PRES   REMARKS
CAPE GIRARDEAU MOSUNNY   34  17  50 NW16G24   30.08R WCI  24
FARMINGTON     PTSUNNY   29  15  56 NW18      30.06R WCI  16
POPLAR BLUFF   SUNNY     32  17  54 NW14      30.10R WCI  22
WEST PLAINS    SUNNY     30  17  58 W13G20    30.09R WCI  20

$$


USA.gov is the U.S. government's official web portal to all federal, state and local government web resources and services.